Selinsgrove, PA

3:24 PM EST on December 09, 2019 (GMT -0500)
Penn Valley

Weather History for KSEG - October, 2019

Change the Weather History Date:

Thursday, October 10, 2019

  Actual Average (KIPT) Record (KIPT)
Temperature  
Mean Temperature 57 °F -  
Max Temperature 73 °F 63 °F 87 °F (1939)
Min Temperature 42 °F 41 °F 26 °F (1972)
Degree Days  
Heating Degree Days 8    
Growing Degree Days 7 (Base 50)    
Moisture  
Dew Point 46 °F    
Average Humidity 79    
Maximum Humidity 97    
Minimum Humidity 46    
Precipitation  
Precipitation 0.00 in - - ()
Sea Level Pressure  
Sea Level Pressure 30.27 in    
Wind  
Wind Speed 2 mph (North)    
Max Wind Speed 6 mph    
Max Gust Speed -    
Visibility 10 miles    
Events      
Averages and records for this station are not official NWS values.
T = Trace of Precipitation, MM = Missing Value Source: NWS Daily Summary

Daily Weather History Graph

Daily Weather History Graph

Search for Another Location

Airport or City:

Astronomy

Oct. 10, 2019 Rise Set
Actual Time 7:13 AM EDT 6:35 PM EDT
Civil Twilight 6:45 AM EDT 7:02 PM EDT
Nautical Twilight 6:13 AM EDT 7:34 PM EDT
Astronomical Twilight 5:42 AM EDT 8:06 PM EDT
Moon 5:37 PM EDT (10/10) 3:52 AM EDT (10/10)
Length of Visible Light 12h 17m
Length of Day
11h 22m
Waxing Gibbous, 91% of the Moon is Illuminated
Oct 10
Waxing Gibbous
Oct 13
Full
Oct 21
Last Quarter
Oct 27
New
Nov 4
First Quarter

Hourly Weather History & Observations

Time (EDT) Temp. Windchill Dew Point Humidity Pressure Visibility Wind Dir Wind Speed Gust Speed Precip Events Conditions
12:53 AM 44.1 °F - 43.0 °F 96% 30.31 in 10.0 mi Calm Calm - N/A   Clear
2:53 AM 43.0 °F - 42.1 °F 97% 30.30 in 10.0 mi Calm Calm - N/A   Clear
3:53 AM 42.1 °F - 41.0 °F 96% 30.30 in 10.0 mi Calm Calm - N/A   Clear
4:53 AM 43.0 °F 41.3 °F 41.0 °F 93% 30.30 in 10.0 mi NNW 3.5 mph - N/A   Clear
5:53 AM 42.1 °F - 41.0 °F 96% 30.30 in 10.0 mi Calm Calm - N/A   Clear
6:53 AM 42.1 °F 40.2 °F 39.9 °F 92% 30.32 in 9.0 mi NW 3.5 mph - N/A   Clear
7:53 AM 43.0 °F - 42.1 °F 97% 30.33 in 10.0 mi Calm Calm - N/A   Clear
8:53 AM 46.9 °F - 44.1 °F 90% 30.34 in 10.0 mi Calm Calm - N/A   Partly Cloudy
9:53 AM 50.0 °F - 45.0 °F 83% 30.34 in 10.0 mi Calm Calm - N/A   Mostly Cloudy
10:53 AM 57.0 °F - 46.0 °F 67% 30.32 in 10.0 mi East 3.5 mph - N/A   Clear
11:53 AM 61.0 °F - 45.0 °F 56% 30.30 in 10.0 mi East 4.6 mph - N/A   Clear
12:53 PM 64.9 °F - 46.0 °F 50% 30.27 in 10.0 mi Variable 4.6 mph - N/A   Clear
1:53 PM 69.1 °F - 48.0 °F 47% 30.24 in 10.0 mi Variable 3.5 mph - N/A   Clear
2:53 PM 72.0 °F - 50.0 °F 46% 30.23 in 10.0 mi NNW 5.8 mph - N/A   Clear
3:53 PM 71.1 °F - 50.0 °F 47% 30.22 in 10.0 mi East 5.8 mph - N/A   Clear
4:53 PM 72.0 °F - 50.0 °F 46% 30.20 in 10.0 mi North 3.5 mph - N/A   Clear
5:53 PM 66.9 °F - 52.0 °F 59% 30.20 in 10.0 mi NNW 3.5 mph - N/A   Clear
6:53 PM 57.0 °F - 53.1 °F 87% 30.20 in 10.0 mi Calm Calm - N/A   Clear
7:53 PM 55.0 °F - 53.1 °F 93% 30.21 in 10.0 mi Calm Calm - N/A   Clear
8:53 PM 53.1 °F - 51.1 °F 93% 30.21 in 10.0 mi Calm Calm - N/A   Clear
9:53 PM 51.1 °F - 50.0 °F 96% 30.22 in 10.0 mi NW 3.5 mph - N/A   Clear
10:53 PM 48.9 °F - 48.0 °F 97% 30.22 in 10.0 mi NNW 3.5 mph - N/A   Clear
11:53 PM 48.0 °F - 46.9 °F 96% 30.22 in 10.0 mi Calm Calm - N/A   Clear